Flag for U.S.A. Weather past 2 weeks in Hayward, California, U.S.A.

Now
66 °F

Passing clouds.


Feels Like: 66 °F
Forecast: 63 / 79 °F
Wind: 6 mph from West

Location: Hayward Air Terminal

Current Time: Aug 30, 2014 at 11:50:46 PM

Latest Report: Aug 30, 2014 at 11:03 PM


Visibility: 10 mi

Pressure: 29.90 "Hg

Humidity: 88%

Dew point: 63 °F

Location of HaywardLocation

Historic Weather in Hayward — Graph

°F

Hayward temperature yesterday

Maximum temperature yesterday: 74 °F (at 1:54 PM)
Minimum temperature yesterday: 63 °F (at 12:54 AM)
Average temperature yesterday: 67 °F

Past Weeks' High & Low Weather Summary

 TemperatureHumidityPressure
High81 °F (Aug 27, 1:54 PM)97% (Aug 27, 11:54 PM)30.10 "Hg (Aug 27, 11:54 PM)
Low60 °F (Aug 16, 10:54 PM)42% (Aug 27, 1:54 PM)29.83 "Hg (Aug 19, 6:54 PM)
Average68 °F75%29.96 "Hg
* Reported Aug 15 9:54 PM — Aug 30 9:54 PM, Hayward, Weather by CustomWeather, © 2014

Note: Actual official high and low records may vary slightly from our data, if they occured in-between our weather recording intervals... More about our weather records

Advertising

Hayward weather history for previous 24 hours

 ConditionsComfort  
Time TempWeatherWind HumidityBarometerVisibility
9:54 PM
Aug 30
67 °FClear.9 mph85%29.92 "Hg10 mi
8:54 PM68 °FClear.3 mph82%29.91 "Hg10 mi
7:54 PM70 °FSunny.7 mph71%29.90 "Hg10 mi
6:54 PM73 °FSunny.8 mph57%29.89 "Hg10 mi
5:54 PM75 °FSunny.10 mph55%29.90 "Hg10 mi
4:54 PM77 °FSunny.6 mph52%29.90 "Hg10 mi
3:54 PM78 °FSunny.7 mph50%29.90 "Hg10 mi
2:54 PM78 °FSunny.10 mph52%29.92 "Hg10 mi
1:54 PM78 °FSunny.8 mph52%29.92 "Hg10 mi
12:54 PM76 °FSunny.9 mph58%29.93 "Hg10 mi
11:54 AM77 °FSunny.8 mph54%29.95 "Hg10 mi
10:54 AM73 °FSunny.5 mph66%29.95 "Hg10 mi
9:54 AM72 °FSunny.5 mph71%29.94 "Hg10 mi
8:54 AM69 °FSunny.3 mph79%29.94 "Hg10 mi
7:54 AM65 °FSunny.No wind85%29.94 "Hg10 mi
6:54 AM63 °FClear.3 mph84%29.93 "Hg10 mi
5:54 AM63 °FClear.No wind90%29.92 "Hg10 mi
4:54 AM64 °FClear.No wind84%29.91 "Hg10 mi
3:54 AM64 °FClear.3 mph87%29.92 "Hg10 mi
2:54 AM65 °FClear.No wind85%29.92 "Hg10 mi
1:54 AM66 °FClear.No wind84%29.93 "Hg10 mi
12:54 AM66 °FClear.No wind84%29.93 "Hg10 mi
11:54 PM
Aug 29
66 °FClear.No wind87%29.95 "Hg10 mi
Weather by CustomWeather, © 2014

See weather overviewHow to use our weather pages